Retour au catalogue

STARLINK-35549

ActifCommunicationsVLEO
NORAD 66139·PAYLOAD·🇺🇸 United States

Lancé Oct 22, 2025 depuis Vandenberg Space Force Base

Loading…

Prochains Passages (prochaines 24 heures)

TLE

FraisSource: CelesTrak SupGP

Époque: Sep 14, 2026, 21:09 UTC

1 66139C 25237AB  26257.88173611  .00053454  00000+0  15792-2 0  2574
2 66139  53.1576 238.2280 0001399  94.5393 261.9254 15.34366557    19

Suivez STARLINK-35549 en temps réel avec AllMySat

Download on the App Store